Жолымбет

Казахстан     51°44′30″N   71°42′58″E
темп.,
°C
ветер,
м/с
пор.,
м/с
влажн.,
%
обл.,
%
осадки,
мм/ч
давл.,
гПа
погр.,
м
16 мая, вс
вс1623:00+18зсз511475 0.0 1022204
02:00+16зюз3368100 0.0 102131
05:00+15зюз336928 0.6 102132
08:00+21зсз46515 0.2 1020339
11:00+26зсз563623 0.2 10191166
14:00+29зсз472355 0.0 10183506
17:00+20ю6959100 3.3 1019140
20:00+19зюз5106075 0.5 1018149
17 мая, пн
пн1723:00+19зсз6125813 0.6 1018161
02:00+18сз456032 0.0 101963
05:00+18сз33595 0.0 102025
08:00+24ссз114460 0.0 1020244
11:00+28сз24305 0.0 10191767
14:00+31ссз452019 0.0 10183491
17:00+27ююв332926 0.1 101796
20:00+22юз3745100 0.4 1018129
18 мая, вт
вт1823:00+20зюз48565 1.1 1018153
02:00+19з4759100 0.0 1016102
05:00+18зюз336336 0.3 101639
08:00+23з574541 0.3 1015395
11:00+28зсз45315 0.3 10131456
14:00+29з562798 0.0 10113131
17:00+19ююв3464100 1.7 1011121
20:00+20с8115844 0.1 1012379
19 мая, ср
ср1923:00+18зсз336439 0.3 101240
02:00+16зсз5976100 0.2 1010169
05:00+14с71287100 0.2 1012511
08:00+14ссв8116927 0.0 1014821
11:00+13ссв896999 0.0 10161126
14:00+12ссв81069100 0.1 10171116
17:00+15св8115132 0.1 10181539
20:00+13св510483 0.0 1019262
20 мая, чт
чт2023:00+10ссв410560 0.0 1021206
02:00+8св35580 0.0 102282
05:00+8ссв2257100 0.0 102412
08:00+14с454152 0.0 1024615
11:00+17ссв563567 0.0 10231486
14:00+19ссв453174 0.0 10231795
17:00+20ссв4530100 0.0 10231904
20:00+16всв11445 0.0 102311